User: anonymous   Login
Location: Harbor Island
(32.3990°N, 80.4435°W)
Time: 01:58:56
(UTC-04:00)
Language:

Cosmos 1455 - Orbit

View from above orbital plane
View from above orbital plane
View from above satellite
View from above satellite

Ground track
Ground track

The orbit data is extracted from the following two-line orbital elements,

1 14032U 83037A   16210.62443069  .00001023  00000-0  50970-4 0  9996
2 14032  82.5151  46.6004 0016995 327.6781  32.3409 15.16340309812338
Epoch (UTC): 28 July 2016 14:59:10
Eccentricity: 0.0016995
inclination: 82.5151°
perigee height: 505 km
apogee height: 528 km
right ascension of ascending node: 46.6004°
argument of perigee: 327.6781°
revolutions per day: 15.16340309
mean anomaly at epoch: 32.3409°
orbit number at epoch: 81233

The dashed part of the orbit path shows where the satellite is in the earth's shadow,  

DLR